Location: *
(32.8140°S, 174.6161°E)
Time: 16:09:34
(UTC+00:00)

SL-19 R/B - Pass Details

Date: 10 December 2019
Orbit: 875 x 1208 km, 100.5° (Epoch: 28 January)

Event Time Altitude Azimuth Distance (km) Brightness Sun altitude
Rises 13:57:47 0° 163° (SSE) 3,786 8.8 -29.0°
Reaches altitude 10° 14:00:23 10° 160° (SSE) 2,781 7.8 -28.8°
Maximum altitude 14:06:34 71° 76° (ENE) 997 4.5 -28.2°
Enters shadow 14:07:06 67° 39° (NE) 1,017 4.4 -28.1°
